Location: Pandora
(40.9481°N, 83.9611°W)
Time: 23:22:42
(UTC-04:00)

Envisat - Pass Details

Date: 21 September 2021
Orbit: 764 x 766 km, 98.2° (Epoch: 15 October)

Event Time Altitude Azimuth Distance (km) Brightness Sun altitude
Rises 05:48:06 0° 26° (NNE) 3,238 6.9 -18.4°
Reaches altitude 10° 05:50:52 10° 41° (NE) 2,307 6.3 -17.9°
Maximum altitude 05:54:54 23° 94° (E) 1,569 5.4 -17.2°
Drops below altitude 10° 05:58:53 10° 146° (SSE) 2,293 5.7 -16.4°
Sets 06:01:37 0° 161° (SSE) 3,214 6.3 -15.9°
